STARLINK-30415, 57821

Orbit data source: Space-Track

STARLINK-30415, 57821 is a payload satellite owned by SpaceX/Seattle (US) in LEO that was launched on Sat, 09 Sep 2023 UTC via an FALCON 9 launch vehicle from the Air Force Eastern Test Range (AFETR). Payload-class satellites include a variety of spacecraft equipped with specific instruments for various scientific and technological missions. These include communications satellites like Starlink; space stations such as the ISS; scientific satellites like the Hubble; Earth observation satellites from companies like Planet Labs, Umbra, and HawkEye 360; GPS; miniature CubeSats for education and research; and military/defense satellites.

Loading next visibility...
Identifier
57821, 2023-138P
Orbit
LEO
Country
Flag of USUS
Related business
Manufacturer
SpaceX/Seattle
Mission
Operational Commercial Communications
Bus & Motor
STARLINK V2M, Unknown motor
Mass
730 kg wet, ~700 kg dry
Launch date (UTC)
2023-09-09 (3 years ago)
Launch vehicle
FALCON 9
Launch site
Air Force Eastern Test Range (AFETR)
Object type
Payload
Rocket body
Debris
Shape & HBR
Box + 2 Pan, 17.7 m
Radar Cross Section
33.884 m², Large (>1 m²)

Expand to show TLE details & history
Last TLE update: 2 days ago

TLE from 2 days ago
0 STARLINK-30415
1 57821U 23138P   26171.29099870  .00006129  00000-0  23197-3 0  9994
2 57821  43.0058  15.2760 0001458 270.2061  89.8623 15.27594593154424
Epoch: 2026-06-20T06:59Z
TLE epoch observation values (Epoch: 2026-06-20T06:59:02.287Z)
Latitude
-0.00007°
Longitude
2.00866°
Altitude
482.779 km
Speed
7.626 km/s
True Right ascension
01h 01m 06s
True Declination
0° 00' 00"
Sunlit
Object was in daylight at epoch
Visualization orbit readout
Latitude
Unknown
Longitude
Unknown
Altitude
Unknown
Speed
Unknown
Apparent Right ascension
Unknown
Apparent Declination
Unknown
Sunlit
N/A
Visualization observer readout
Local Sidereal Time
21:34:12
Azimuth
Unknown
Elevation
Unknown
Doppler factor
Unknown
Orbital elements
Apogee altitude
485.95 km
Perigee altitude
483.949 km
Semi-major axis
6,863.087 km
Eccentricity
0.00015
Inclination
43.0058°
RAAN
15.276°
Arg. of periapsis
270.2061°
True anomaly
89.87901°
Mean anomaly
89.8623°
Eccentric anomaly
89.87065°
Mean motion
3.81737 °/min
Orbital period
94.31 mins
BSTAR
0.00023197
Loading maneuver chart data...
Computing Atmospheric mass density...
Loading historical data...
Loading historical data...
Loading historical data...
Loading historical data...
Loading historical data...
Loading historical data...
Loading historical data...

Documentation

Showing up to 5 results
|